Regional Weather Roundup
Issued by NWS Upton, NY

Current Version | Previous Version | Text Only | Print | Product List | Glossary On
Versions: 1 2 3 4 5 6 7 8 9 10 11 12 13 14 15 16 17 18 19 20 21 22 23 24 25 26 27
000 ASUS41 KOKX 101108 RWROKX REGIONAL WEATHER ROUNDUP NATIONAL WEATHER SERVICE NEW YORK NY 600 AM EST SAT DEC 10 2016 NOTE: "FAIR" INDICATES FEW OR NO CLOUDS BELOW 12,000 FEET WITH NO SIGNIFICANT WEATHER AND/OR OBSTRUCTIONS TO VISIBILITY. NYZ071-072-176-178-NJZ106-104-101200- NEW YORK CITY METRO AREA CITY SKY/WX TMP DP RH WIND PRES REMARKS Central Park CLEAR 29 15 56 MISG 30.36S Wall St Helipt SUNNY 31 22 69 W8 30.37R WCI 23 Bronx Bot Gard NOT AVBL LaGuardia APRT CLEAR 31 16 54 NW13 30.35R WCI 21 Kennedy INTL PTCLDY 30 14 51 W14 30.37R WCI 19 Breezy Point N/A N/A N/A N/A W9G16 N/A Newark/Liberty PTCLDY 25 17 72 SW5 30.36S WCI 19 Teterboro CLEAR 27 14 58 W3 30.35R $$ NYZ177-179-078>081-101200- LONG ISLAND NEW YORK CITY SKY/WX TMP DP RH WIND PRES REMARKS Jones Beach N/A N/A N/A N/A NW16 N/A Matinecock PT NOT AVBL Farmingdale CLEAR 28 16 60 NW8 30.34R WCI 20 MacArthur/ISP PTCLDY 23 16 74 W7 30.33R WCI 15 Shirley CLEAR 22 15 75 CALM 30.33R Westhampton NOT AVBL Southampton NOT AVBL Bridgehampton NOT AVBL East Hampton N/A 27 14 58 NW10 30.31R WCI 17 Montauk N/A 28 13 53 NW15G26 30.32R WCI 16 $$ NYZ052-065-067-101200- HUDSON VALLEY CITY SKY/WX TMP DP RH WIND PRES REMARKS White Plains PTCLDY 25 15 66 W10 30.31R WCI 15 Newburgh CLEAR 21 18 86 W6 30.33R WCI 14 Montgomery MOCLDY 18 14 84 SW3 30.32R Poughkeepsie CLEAR 15 12 88 CALM 30.33R Albany CLOUDY 20 12 71 W6 30.32R WCI 12 $$ NJZ001-105-106-008-010-013-015-019>022-104-101200- NEW JERSEY CITY SKY/WX TMP DP RH WIND PRES REMARKS Newark/Liberty PTCLDY 25 17 72 SW5 30.36S WCI 19 Teterboro CLEAR 27 14 58 W3 30.35R Caldwell CLEAR 24 15 68 CALM 30.36R Somerville CLEAR 19 15 84 CALM 30.35R Linden N/A 27 20 77 CALM 30.38R Sussex CLEAR 17 14 88 CALM 30.32R Andover N/A 20 15 81 CALM 30.33R Trenton PTCLDY 29 20 69 W8 30.37R WCI 21 Millville CLEAR 26 19 74 W8 30.44R WCI 18 Atlantic City NOT AVBL Wrightstown CLEAR 29 19 66 W7 30.36R WCI 21 Toms River CLEAR 21 18 88 SW5 30.40R WCI 15 Belmar CLEAR 24 22 91 SW6 30.38R WCI 17 $$ PAZ047>061-062-071-101200- EASTERN PENNSYLVANIA CITY SKY/WX TMP DP RH WIND PRES REMARKS Philadelphia PTCLDY 27 17 66 W7 30.43R WCI 19 Allentown CLOUDY 28 19 69 W9 30.36R WCI 19 Scranton CLOUDY 26 21 81 W6 30.30S WCI 19 $$ CTZ002-004>006-009-010-012-RIZ004-006-007-MAZ004-011-015-101200- SOUTHERN NEW ENGLAND IN CT CITY SKY/WX TMP DP RH WIND PRES REMARKS Bradley INTL CLEAR 20 7 57 CALM 30.30R Hartford CLEAR 22 10 60 CALM 30.32R Danbury CLEAR 17 12 80 CALM 30.32R Wtrbury/Oxford CLEAR 19 7 58 NW3 30.29R Bridgeport CLEAR 24 14 65 NW5 30.33R WCI 18 Meriden CLEAR 19 10 68 CALM 30.32R New Haven CLEAR 25 13 60 W7 30.33R WCI 17 Chester N/A 21 10 63 CALM 30.29R Groton CLEAR 26 10 50 NW9 30.31R WCI 17 Wilimantic CLEAR 23 10 57 VRB3 30.30R IN RI CITY SKY/WX TMP DP RH WIND PRES REMARKS Providence CLEAR 19 9 65 W5 30.28R WCI 12 Block Island CLEAR 25 12 58 NW20G26 30.29R WCI 11 Westerly CLEAR 23 9 55 W5 30.30R WCI 17 IN MA CITY SKY/WX TMP DP RH WIND PRES REMARKS Boston PTCLDY 22 8 55 W14 30.27R WCI 9 Worcester CLEAR 16 3 56 W7 30.20R WCI 6 Westfield CLEAR 19 8 62 NW6 30.28R WCI 11 Provincetown MOCLDY 25 15 66 NW17G25 30.23R WCI 12 Nantucket CLEAR 25 9 50 NW13 30.25R WCI 14 $$ ANZ330-335-338-340-345-350-353-355-101200- COASTAL MARINE OBSERVATIONS STATION/POSITION TIME SKY/WX TEMP WIND PRES VSBY WAVE AIR SEA DIR/SP/G HT/PER (UTC) (F) (DEG/KT/KT) (MB) (MI) (FT/S) NY HARB ENTRANCE 1050 34 51 300/ 17/ 23 1027.6 3/ 4 20 S FIRE ISLAND 1050 34 52 320/ 19/ 25 1026.9 4/ 5 GREAT SOUTH BAY 1015 29 40 N/A 23 SSW MONTAUK P 0950 31 54 300/ 14/ 21 1026.1 4/ 4 15 E BARNEGAT LI 1030 51 N/A 4/ 4 HUDSON CANYON 0950 38 56 1025.9 8/ 7 KINGS POINT 1042 30 45 1027.5 EXECUTION ROCKS 1045 30 270/ 10/ 16 N/A CENTRAL LI SOUND 1030 29 49 310/ 14/ 19 N/A 2/ 4 EASTERN LI SOUND NOT AVBL ROBBINS REEF 1042 29 290/ 9/ 11 1028.1 $$ >>>>>>>>>>>>>>>>>>>>>>>>>>>> KEY <<<<<<<<<<<<<<<<<<<<<<<<<<< > < > SKY/WX - Sky Condition/Present Weather < > TMP - Temperature in Fahrenheit < > DP - Dew Point in Fahrenheit < > RH - Relative Humidity in Percent < > WIND - Direction (from) and Speed in MPH < > PRES - Mean Sea Level Pressure (inches of Hg) < > WCI - Wind Chill Index < > VSB - VISIBILITY IN MILES < > HX - HEAT INDEX < > TC - TEMPERATURE IN CELSIUS < > VRB - VARIABLE WIND DIRECTION < > < >>>>>>>>>>>>>>>>>>>>>>>>>>>> KEY <<<<<<<<<<<<<<<<<<<<<<<<<<<

USA.gov is the U.S. government's official web portal to all federal, state and local government web resources and services.